When you browse on this site, cookies collect data to enhance your experience and personalize the content and advertising you see.
Visit our Privacy Policy to learn more. By continuing to use the site, you agree to this use of cookies and data.

Hourly Weather Singuilucan

Today, 12 July, Sunday

Time Temperature Precipitation Wind Pressure Humidity
00:00 +11°C° 0 mm 1 mps 556 mmHg 93%
01:00 +11°C° 0 mm 1 mps 556 mmHg 93%
02:00 +10°C° 0 mm 1 mps 555 mmHg 93%
03:00 +10°C° 0 mm 1 mps 555 mmHg 93%
04:00 +10°C° 0 mm 1 mps 555 mmHg 92%
05:00 +8°C° 0 mm 0 mps 555 mmHg 91%
06:00 +11°C° 0 mm 0 mps 556 mmHg 80%
07:00 +13°C° 0 mm 0 mps 557 mmHg 69%
08:00 +15°C° 0 mm 0 mps 559 mmHg 58%
09:00 +19°C° 0 mm 1 mps 559 mmHg 52%
10:00 +20°C° 0 mm 2 mps 560 mmHg 46%
11:00 +21°C° 0 mm 2 mps 561 mmHg 41%
12:00 +21°C° 0.1 mm 3 mps 560 mmHg 45%
13:00 +21°C° 0.1 mm 4 mps 559 mmHg 49%
14:00 +20°C° 0.1 mm 4 mps 558 mmHg 53%
15:00 +19°C° 0.7 mm 4 mps 558 mmHg 60%
16:00 +18°C° 0.7 mm 3 mps 557 mmHg 67%
17:00 +16°C° 0.7 mm 3 mps 556 mmHg 74%
18:00 +15°C° 0.3 mm 2 mps 556 mmHg 80%
19:00 +14°C° 0.3 mm 2 mps 556 mmHg 86%
20:00 +12°C° 0.3 mm 2 mps 556 mmHg 93%
21:00 +12°C° 0 mm 1 mps 555 mmHg 92%
22:00 +11°C° 0 mm 1 mps 555 mmHg 91%
23:00 +11°C° 0 mm 1 mps 555 mmHg 91%

Tomorrow, 13 July, Monday

Time Temperature Precipitation Wind Pressure Humidity
00:00 +11°C° 0 mm 1 mps 555 mmHg 91%
01:00 +9°C° 0 mm 0 mps 554 mmHg 90%
02:00 +9°C° 0 mm 0 mps 554 mmHg 90%
03:00 +9°C° 0 mm 0 mps 554 mmHg 89%
04:00 +8°C° 0 mm 0 mps 554 mmHg 87%
05:00 +8°C° 0 mm 0 mps 554 mmHg 86%
06:00 +11°C° 0 mm 0 mps 555 mmHg 77%
07:00 +13°C° 0 mm 0 mps 557 mmHg 68%
08:00 +15°C° 0 mm 0 mps 558 mmHg 59%
09:00 +18°C° 0 mm 1 mps 559 mmHg 52%
10:00 +19°C° 0 mm 2 mps 559 mmHg 45%
11:00 +20°C° 0 mm 3 mps 560 mmHg 39%
12:00 +20°C° 0.1 mm 3 mps 559 mmHg 42%
13:00 +21°C° 0.1 mm 4 mps 559 mmHg 45%
14:00 +21°C° 0.1 mm 5 mps 558 mmHg 47%
15:00 +19°C° 0.4 mm 4 mps 558 mmHg 56%
16:00 +18°C° 0.4 mm 4 mps 557 mmHg 64%
17:00 +17°C° 0.4 mm 3 mps 556 mmHg 72%
18:00 +14°C° 0.5 mm 3 mps 556 mmHg 78%
19:00 +14°C° 0.5 mm 2 mps 556 mmHg 84%
20:00 +13°C° 0.5 mm 1 mps 556 mmHg 91%
21:00 +13°C° 0 mm 1 mps 556 mmHg 90%
22:00 +12°C° 0 mm 1 mps 556 mmHg 88%
23:00 +12°C° 0 mm 1 mps 556 mmHg 87%

Day after tomorrow, 14 July, Tuesday

Time Temperature Precipitation Wind Pressure Humidity
00:00 +11°C° 0 mm 1 mps 555 mmHg 87%
01:00 +11°C° 0 mm 1 mps 555 mmHg 87%
02:00 +11°C° 0 mm 1 mps 554 mmHg 86%
03:00 +11°C° 0 mm 1 mps 554 mmHg 87%
04:00 +11°C° 0 mm 1 mps 554 mmHg 87%
05:00 +10°C° 0 mm 1 mps 554 mmHg 87%
06:00 +13°C° 0 mm 1 mps 555 mmHg 79%
07:00 +14°C° 0 mm 0 mps 557 mmHg 71%
08:00 +16°C° 0 mm 0 mps 559 mmHg 63%
09:00 +20°C° 0 mm 1 mps 559 mmHg 57%
10:00 +21°C° 0 mm 1 mps 560 mmHg 52%
11:00 +23°C° 0 mm 1 mps 560 mmHg 46%
12:00 +21°C° 0.9 mm 2 mps 559 mmHg 53%
13:00 +20°C° 0.9 mm 3 mps 559 mmHg 59%
14:00 +20°C° 0.9 mm 4 mps 558 mmHg 65%
15:00 +19°C° 1.2 mm 4 mps 557 mmHg 69%
16:00 +18°C° 1.2 mm 4 mps 557 mmHg 74%
17:00 +17°C° 1.2 mm 4 mps 556 mmHg 78%
18:00 +16°C° 0.3 mm 3 mps 556 mmHg 83%
19:00 +14°C° 0.3 mm 2 mps 556 mmHg 88%
20:00 +13°C° 0.3 mm 2 mps 556 mmHg 93%
21:00 +12°C° 0 mm 1 mps 555 mmHg 92%
22:00 +12°C° 0 mm 1 mps 555 mmHg 91%
23:00 +12°C° 0 mm 1 mps 555 mmHg 91%

15 July, Wednesday

Time Temperature Precipitation Wind Pressure Humidity
00:00 +12°C° 0 mm 1 mps 555 mmHg 91%
01:00 +11°C° 0 mm 1 mps 554 mmHg 91%
02:00 +11°C° 0 mm 1 mps 554 mmHg 92%
03:00 +11°C° 0 mm 1 mps 554 mmHg 92%
04:00 +11°C° 0 mm 1 mps 554 mmHg 92%
05:00 +10°C° 0 mm 1 mps 554 mmHg 92%
06:00 +13°C° 0 mm 1 mps 555 mmHg 84%
07:00 +14°C° 0 mm 0 mps 557 mmHg 77%
08:00 +16°C° 0 mm 0 mps 558 mmHg 69%
09:00 +19°C° 0.2 mm 1 mps 559 mmHg 64%
10:00 +21°C° 0.2 mm 1 mps 559 mmHg 60%
11:00 +21°C° 0.2 mm 2 mps 560 mmHg 55%
12:00 +20°C° 1.5 mm 3 mps 559 mmHg 60%
13:00 +20°C° 1.5 mm 3 mps 558 mmHg 64%
14:00 +19°C° 1.5 mm 4 mps 557 mmHg 68%
15:00 +18°C° 0.9 mm 4 mps 557 mmHg 71%
16:00 +18°C° 0.9 mm 4 mps 557 mmHg 75%
17:00 +17°C° 0.9 mm 3 mps 556 mmHg 78%
18:00 +16°C° 0.4 mm 3 mps 556 mmHg 83%
19:00 +13°C° 0.4 mm 3 mps 556 mmHg 89%
20:00 +13°C° 0.4 mm 2 mps 556 mmHg 94%
21:00 +13°C° 0 mm 2 mps 556 mmHg 94%
22:00 +13°C° 0 mm 2 mps 556 mmHg 94%
23:00 +12°C° 0 mm 1 mps 556 mmHg 93%

16 July, Thursday

Time Temperature Precipitation Wind Pressure Humidity
00:00 +12°C° 0 mm 1 mps 555 mmHg 93%
01:00 +11°C° 0 mm 1 mps 555 mmHg 92%
02:00 +11°C° 0 mm 1 mps 554 mmHg 91%
03:00 +9°C° 0 mm 0 mps 554 mmHg 90%
04:00 +9°C° 0 mm 0 mps 554 mmHg 88%
05:00 +9°C° 0 mm 0 mps 554 mmHg 87%
06:00 +11°C° 0 mm 0 mps 556 mmHg 79%
07:00 +15°C° 0 mm 1 mps 557 mmHg 71%
08:00 +18°C° 0 mm 1 mps 559 mmHg 64%
09:00 +18°C° 0 mm 2 mps 559 mmHg 58%
10:00 +20°C° 0 mm 3 mps 560 mmHg 53%
11:00 +21°C° 0 mm 4 mps 560 mmHg 47%
12:00 +21°C° 0.2 mm 4 mps 560 mmHg 50%
13:00 +21°C° 0.2 mm 5 mps 559 mmHg 52%
14:00 +21°C° 0.2 mm 5 mps 559 mmHg 54%
15:00 +19°C° 0.5 mm 5 mps 558 mmHg 61%
16:00 +18°C° 0.5 mm 4 mps 557 mmHg 68%
17:00 +17°C° 0.5 mm 4 mps 557 mmHg 75%
18:00 +14°C° 0.3 mm 4 mps 557 mmHg 81%
19:00 +13°C° 0.3 mm 3 mps 556 mmHg 87%
20:00 +12°C° 0.3 mm 2 mps 556 mmHg 93%
21:00 +12°C° 0 mm 2 mps 556 mmHg 93%
22:00 +11°C° 0 mm 1 mps 556 mmHg 92%
23:00 +11°C° 0 mm 1 mps 556 mmHg 92%

17 July, Friday

Time Temperature Precipitation Wind Pressure Humidity
00:00 +10°C° 0 mm 1 mps 555 mmHg 90%
01:00 +10°C° 0 mm 1 mps 555 mmHg 89%
02:00 +8°C° 0 mm 0 mps 554 mmHg 88%
03:00 +8°C° 0 mm 0 mps 555 mmHg 86%
04:00 +8°C° 0 mm 0 mps 555 mmHg 85%
05:00 +8°C° 0 mm 0 mps 555 mmHg 84%
06:00 +10°C° 0 mm 0 mps 556 mmHg 74%
07:00 +13°C° 0 mm 0 mps 558 mmHg 65%
08:00 +15°C° 0 mm 0 mps 559 mmHg 56%
09:00 +18°C° 0 mm 1 mps 560 mmHg 51%
10:00 +20°C° 0 mm 1 mps 560 mmHg 46%
11:00 +20°C° 0 mm 2 mps 561 mmHg 41%
12:00 +20°C° 0.4 mm 3 mps 560 mmHg 48%
13:00 +19°C° 0.4 mm 4 mps 559 mmHg 54%
14:00 +19°C° 0.4 mm 4 mps 558 mmHg 61%
15:00 +18°C° 0.9 mm 4 mps 558 mmHg 65%
16:00 +17°C° 0.9 mm 4 mps 557 mmHg 70%
17:00 +15°C° 0.9 mm 4 mps 557 mmHg 75%
18:00 +14°C° 0.3 mm 3 mps 556 mmHg 80%
19:00 +12°C° 0.3 mm 3 mps 556 mmHg 85%
20:00 +11°C° 0.3 mm 3 mps 556 mmHg 91%
21:00 +12°C° 0.1 mm 2 mps 556 mmHg 90%
22:00 +12°C° 0.1 mm 2 mps 556 mmHg 89%
23:00 +12°C° 0.1 mm 2 mps 556 mmHg 88%
Show more